Starlink 32862

operational
NORAD ID: 62864 Int'l Des: 2025-022 Owner: SPXS Country: US Constellation: starlink
LEOCIRCULAR

About Starlink 32862

Description loading...

Live Position

Loading 3D Globe...

Upcoming Passes

Altitude History

Altitude vs Time

uPlot chart will show altitude changes over time

Two-Line Element Set

1 62864U 25022L 25354.11492350 .00021903 00000-0 74924-3 0 9995
2 62864 53.1588 139.4633 0000406 110.4420 249.6624 15.30209183 49715
Epoch: Dec 20, 2025 • Age: 14 hours

Current Status

Altitude 476.7 km
Velocity 7.63 km/s
Sub-Earth Point -3.85°S, 151.66°E
Launch Date Feb 2, 2025
Age 0.8 years
Type internet

Technical Details

Classification Payload
Mass 730.00 kg
Dry Mass 700.00 kg
Total Mass 730.00 kg
Length 0.30 m
Diameter 4.10 m
Span 29.00 m
Shape Box + pan
Manufacturer SPXS
Bus Type Starlink V2M
Phase Status In Orbit
Owner/State SPXS/US

Large Constellations

Loading constellations...